Regional Weather Roundup
Issued by NWS

Home | Current Version | Previous Version | Graphics & Text | Print | Product List | Glossary On
Versions: 1 2 3 4 5 6 7 8 9 10 11 12 13 14 15 16 17 18 19 20 21 22 23 24 25 26 27 28 29 30 31 32 33 34 35 36 37 38 39 40 41 42 43 44 45 46 47 48 49 50
000
ASUS44 KMEG 191800
RWRTN
TENNESSEE HOURLY STATE WEATHER ROUNDUP
NATIONAL WEATHER SERVICE MEMPHIS TN
100 PM CDT SAT AUG 19 2017

TNZ002-004-019-021-049-052-054-088>092-191900-
WEST TENNESSEE

CITY           SKY/WX    TMP DP  RH WIND       PRES   REMARKS
MEMPHIS INTL   MOSUNNY   90  77  65 VRB5      29.99F HX 103
NWS MEMPHIS      N/A     89 N/A N/A MISG        N/A
JACKSON        SUNNY     90  73  57 NW8       29.98F HX  98
DYERSBURG      MOSUNNY   87  74  64 W3        29.98F HX  95
$$

TNZ008-025-027-028-033-062-065-066-191900-
NORTH MIDDLE TENNESSEE

CITY           SKY/WX    TMP DP  RH WIND       PRES   REMARKS
NASHVILLE      PTSUNNY   89  68  49 NW6       30.00F HX  93
CLARKSVILLE    MOSUNNY   87  71  58 VRB5      29.98F HX  93
SMYRNA         MOSUNNY   88  68  51 NE8       30.01F HX  91
CROSSVILLE     MOSUNNY   80  64  58 W5        30.08F
$$

TNZ061-075-076-078-094-096-097-191900-
SOUTH MIDDLE TENNESSEE

CITY           SKY/WX    TMP DP  RH WIND       PRES   REMARKS
TULLAHOMA      MOSUNNY   84  66  54 VRB6      30.05S
WINCHESTER     SUNNY     84  68  58 N6        30.03S
$$

TNZ017-018-042-046-047-191900-
NORTHEAST TENNESSEE

CITY           SKY/WX    TMP DP  RH WIND       PRES   REMARKS
TRI CITIES     MOSUNNY   81  63  54 VRB6      30.05F
$$

TNZ012-013-036-069-073-074-191900-
CENTRAL EAST TENNESSEE

CITY           SKY/WX    TMP DP  RH WIND       PRES   REMARKS
KNOXVILLE      NOT AVBL
OAK RIDGE      SUNNY     86  62  44 VRB3      30.03F
GATLINBURG     SUNNY     84  61  45 VRB3      30.01F
$$

TNZ083-085-099-191900-
SOUTHEAST TENNESSEE

CITY           SKY/WX    TMP DP  RH WIND       PRES   REMARKS
CHATTANOOGA    MOSUNNY   86  64  47 CALM      30.01F
$$

SKY/WX REPORTED AS FAIR MEANS FEW OR NO CLOUDS BELOW
12 THOUSAND FEET.





USA.gov is the U.S. government's official web portal to all federal, state and local government web resources and services.